P/2006 S1 (Christensen)

Epoch 2006 Aug. 13.0 TT = JDT 2453960.5  

T 2006 Aug. 30.18068 TT                                 Nakano

q   1.3593078            (2000.0)            P               Q

n   0.15076874     Peri.  128.04686     +0.94009739     +0.32129082

a   3.4961912      Node   213.65329     -0.33964712     +0.91143807

e   0.6112032      Incl.   11.86814     +0.02927015     +0.25700751

P   6.54 (+/- 0.03 day)

From 299 observations 2006 Sept. 16-Dec. 16, mean residual 0".59.

Residuals in seconds of arc 

2006/                     060921 215  0.3+  0.2+    061004 703  0.4+  0.1-  

060916 703  0.1+  0.5+    060921 215  0.6-  0.8-    061004 703  0.7-  1.1-  

060916 703  0.0   0.2+    060921 215  0.0   0.5-    061009 104  0.0   0.0   

060916 703  0.7+  0.4+    060921 246  0.1-  0.1+    061009 104  0.3-  0.3+  

060916 703  0.2-  0.5+    060921 246  0.1-  0.3+    061009 104  0.3+  0.6-  

060916 703  0.3+  1.0+    060921 246  0.0   0.4+    061011 204  0.1-  0.2+  

060916 703  0.3-  0.5-    060921 246  0.4-  0.1+    061011 204  0.2-  0.1+  

060916 703  0.8-  0.2+    060921 246  0.1+  0.0     061011 673  0.8+  0.6+  

060916 703  0.9-  0.1+    060921 246  0.0   0.2+    061011 673  1.0+  0.4+  

060916 703  0.6-  0.8-    060922 699 (4.8-  3.5-)   061011 673  0.6+  1.0+  

060916 703  0.6-  0.6-    060922 699 (5.9-  4.7-)   061011 673  0.3+  0.7+  

060916 703  0.2+  0.0     060922 585  1.2-  1.2+    061011 J97  0.3-  0.0   

060916 703  0.3-  0.5+    060922 585 (0.2-  2.1+)   061012 J97  0.6+  0.0   

060916 703  0.3-  0.1-    060922 585  0.1-  1.2+    061012 J97  0.2+  0.1-  

060916 703  0.2-  0.2-    060922 585  0.2-  0.4+    061012 J70 (4.6+  2.3-) 

060916 703  0.1+  0.0     060922 585  1.6-  0.2+    061012 J70 (5.4+  1.8+) 

060916 703  0.1-  0.4+    060922 585  0.8-  1.1-    061012 J70 (2.5+  5.7+) 

060916 585  0.3-  0.8-    060922 585  0.2+  0.1+    061012 J70 (2.2+  8.5+) 

060916 585  1.4+  1.4+    060922 585 (3.0-  2.8+)   061012 A11  0.1+  0.7+  

060916 J87  0.4-  0.6-    060923 372  0.0   1.0+    061012 A11  1.4+  0.8+  

060916 585 (0.4+  3.6+)   060923 235  0.3-  0.7-    061012 A11  0.6+  0.6+  

060916 J87  0.4-  0.9-    060923 461  0.2+  0.3+    061012 A11  0.0   1.0+  

060916 J87  0.1-  0.5-    060923 461  0.3+  0.3+    061012 A11  1.2+  0.3+  

060916 585  0.7+  1.9+    060923 461  0.3+  0.3+    061012 A11  0.2+  0.3+  

060916 585 (3.6+  3.4+)   060925 J64  0.2-  0.9+    061013 442  0.7-  1.6+  

060916 585 (2.7+  3.5+)   060925 J64  0.0   0.6+    061013 585 (3.2-  0.8+) 

060916 585 (0.5-  2.5+)   060925 J64  0.2+  0.3+    061013 J70  1.3+  1.4-  

060916 473  0.8-  1.1-    060926 850  0.3-  0.7-    061013 585 (0.0   2.4+) 

060916 473  0.7-  1.1-    060926 850  0.1-  0.3-    061013 J70  0.4+  1.3-  

060916 473  0.5-  1.3-    060926 152  0.0   0.2-    061013 J70 (2.4-  3.2-) 

060916 941  0.3-  0.7-    060926 152  0.9-  0.9-    061013 585  0.1+  1.6-  

060916 941  0.3-  0.8-    060926 152  1.5-  1.1-    061013 585  0.2-  0.7+  

060916 941  0.3+  0.4-    060926 J97  0.2-  0.3-    061014 H45  0.4-  0.2-  

060916 941  0.3+  0.3-    060926 213 (0.7-  2.0+)   061014 H45  0.2-  0.4-  

060917 H06  0.7-  0.0     060926 213 (0.7-  2.1+)   061014 H45  0.1+  0.5-  

060917 H06  0.2+  1.5-    060926 213 (0.6-  2.2+)   061014 H45  0.2-  0.4-  

060917 H06  0.7-  0.1-    060926 A11  0.5+  0.2+    061014 H45  0.3-  0.3-  

060917 G88  0.2-  0.7-    060926 A11  0.3+  0.9+    061014 349  0.5-  0.4-  

060917 G88  1.1-  0.9-    060926 A11 (1.7+  2.7+)   061014 349  0.3-  0.3-  

060917 H55 (7.8-  5.0-)   060926 A11  0.6+  0.8+    061014 349  0.0   0.5-  

060917 H55 (7.6-  5.3-)   060926 A11  0.9+  0.3+    061014 232  0.4-  0.7-  

060917 H55 (6.5-  4.6-)   060926 A11  0.2-  0.3+    061014 232  0.4-  1.2-  

060917 G88 (1.1-  2.1-)   060927 473  0.0   0.3+    061014 232  0.3-  1.1-  

060917 703 (3.0-  1.5-)   060927 473  0.1-  0.3+    061015 118  0.1+  0.7-  

060917 703 (2.2-  1.2-)   060927 473  0.0   0.2+    061015 118  0.7-  0.0   

060917 703  1.5-  1.1-    060927 A77  0.4-  0.2+    061015 118  0.0   0.3+  

060917 673  0.5+  0.2+    060927 A77  0.4-  0.4+    061015 118  0.4-  0.5-  

060917 448  0.4-  0.7+    060927 A77  0.7+  0.3-    061016 683  0.5+  0.6-  

060917 448  0.5-  1.0+    060927 A77  0.6-  0.4+    061016 683  1.5-  0.1-  

060917 448  0.4-  0.4+    060928 204  0.2+  0.3+    061016 683 (2.6-  0.0 ) 

060917 673  0.8+  0.5+    060928 204  0.1+  0.2+    061016 046  0.3-  0.0   

060917 673  0.7+  0.0     060928 118  0.4+  0.1+    061016 046  0.3-  0.1-  

060917 673  0.5+  0.7+    060928 473  0.2+  0.2+    061016 046  0.3-  0.5+  

060917 651  0.8-  0.5-    060928 118  0.4+  0.1+    061016 046  0.2+  0.2-  

060917 651  0.8-  0.3-    060928 473  0.1+  0.1+    061016 046  0.1-  0.5-  

060917 651  0.9-  0.5-    060928 473  0.2+  0.2+    061018 H45  0.2-  0.1+  

060917 651  1.0-  0.6-    060928 473  0.1+  0.2+    061018 H45  0.3+  0.1-  

060917 850  0.1-  0.9-    060928 473  0.0   0.1+    061018 H45  0.1+  0.1-  

060917 850  0.6-  1.2-    060928 473  0.0   0.1+    061018 H45  0.3+  0.2+  

060917 850  0.4-  0.3-    060928 118  0.5+  0.1-    061021 G96  0.6+  0.2-  

060917 213  0.1+  0.2-    060929 130  0.1+  0.0     061021 G96  0.5+  0.1-  

060917 213  0.3+  0.0     060929 130  0.6+  0.4+    061021 G96  0.3+  0.2-  

060917 213  0.5+  0.2+    060929 A41  0.2+  0.1-    061021 G96  0.1+  0.1-  

060917 213  0.4+  0.2+    060929 J64  0.0   0.3+    061022 J97  1.1+  0.9+  

060918 349  0.1-  0.0     060929 J97  0.4+  0.8-    061023 G96  0.6-  0.3-  

060918 349  0.4-  0.0     060929 A41  0.3-  0.7-    061023 G96  0.4-  0.1-  

060918 349  0.5-  0.4-    060929 J64  0.0   0.7+    061023 G96  0.8-  0.2-  

060918 A11  1.3+  0.6+    060929 J64  0.0   1.1+    061023 G96  0.3-  0.5+  

060918 A11  1.0+  1.5+    060929 A11  0.6+  0.0     061025 A41  0.7-  0.5+  

060918 A11  0.7-  0.8+    060930 A11  0.3+  0.1+    061025 561  0.4-  0.7+  

060918 A11  0.2+  0.3+    060930 A11  0.1-  0.5+    061025 561  1.3-  1.3+  

060918 A11  0.5-  0.3-    060930 A11  0.3+  0.3+    061025 561  0.0   0.1+  

060918 A11  0.7-  0.9+    060930 A11  0.6-  0.5+    061025 A41  0.4-  0.1-  

060918 A11  0.2+  0.3+    060930 A11  0.3+  0.2+    061025 A41  0.6-  0.6-  

060918 A11  0.3+  0.9+    060930 A41  0.1-  0.0     061026 246  0.1+  0.8+  

060919 H06  0.1-  0.2-    060930 850  0.2+  0.2-    061026 246  0.3-  0.1-  

060919 H06  0.6-  0.5-    060930 850  0.2-  0.2-    061026 246  0.7-  0.3+  

060919 H06  1.0-  0.6-    060930 850  0.0   0.4-    061026 246  0.1-  0.3+  

060919 213  0.1+  0.0     060930 850  0.0   0.2-    061026 246  0.2+  0.6-  

060919 213  0.2+  0.1-    060930 G96 (2.6+  2.1+)   061028 J97  0.1+  0.2+  

060919 213  0.0   0.0     060930 G96 (2.8+  2.1+)   061028 J67  0.4-  0.9-  

060919 A11  0.8+  0.4+    060930 G96 (2.7+  1.9+)   061028 J67  0.7-  0.2-  

060919 A11  0.8+  0.3-    060930 G96 (2.8+  2.9+)   061028 J67  1.8-  0.2+  

060919 A11  1.6+  0.2-    060930 118  0.5+  0.1-    061109 104  1.3-  0.2+  

060919 A11  0.4+  0.5-    060930 118  0.4+  0.2-    061109 104  1.3+  0.4-  

060919 A11  1.1+  0.4+    060930 118  0.4+  0.2-    061109 104  0.8-  0.4+  

060919 A11  1.1+  0.7-    060930 118  0.3+  0.0     061110 673  0.1+  1.1+  

060919 A11  1.6+  0.3-    060930 118  0.3+  0.1+    061110 673  0.2-  0.8+  

060919 A11  0.3+  0.4+    060930 J97  0.1+  0.2-    061110 673  0.3-  0.6+  

060919 A11  0.8+  0.1+    060930 A02  0.0   0.5-    061110 673  0.4+  0.5+  

060919 473  0.3+  0.0     060930 461  0.2+  0.2+    061110 J97  0.8+  0.5+  

060920 673  0.5+  0.6+    060930 J67  0.6+  0.2-    061111 703  0.1+  0.8-  

060920 673  0.1+  0.2+    060930 461  0.4+  0.3+    061111 703 (3.0-  0.5+) 

060920 673  0.0   0.4+    060930 A02  0.2-  0.4-    061111 703  0.1-  0.5-  

060920 673  0.8+  0.2+    061001 J67  0.2+  0.1+    061111 703 (0.1+  2.5+) 

060920 372  1.0-  0.2-    061001 J67  0.2+  0.1+    061114 G96  0.2+  0.0   

060920 372  0.4-  0.4-    061001 461  0.3+  0.3+    061114 G96  0.1-  0.0   

060920 213  0.6+  1.1+    061001 A02  0.2+  0.4-    061114 G96  0.1-  0.4-  

060920 213  0.4+  0.9+    061001 461  0.4+  0.2+    061114 G96  0.2-  0.5-  

060920 213  0.4+  1.1+    061001 461  0.4+  0.3+    061114 G96  0.1+  0.5+  

060920 157  1.0+  0.3+    061001 941  0.5+  0.1+    061114 G96  0.2-  0.3+  

060920 A11  1.6-  1.1+    061001 941  0.6+  0.0     061114 G96  0.8-  0.3+  

060920 A11  1.4+  0.9+    061001 941  0.3+  0.1-    061114 G96  0.0   0.2+  

060920 A11 (0.7+  2.9+)   061001 J95  0.1+  0.1-    061114 703  1.0+  0.5+  

060920 A11  0.3+  0.1+    061001 J95  0.3+  0.1-    061114 703  1.4+  0.1+  

060921 850  0.2-  0.1-    061001 118  0.7+  0.1+    061114 703  1.5-  1.4-  

060921 850  0.0   0.6-    061001 118  0.1+  0.4+    061116 215  0.4+  0.5-  

060921 850  0.1-  0.4-    061001 J95  0.3+  0.1-    061216 G96  0.4-  0.7-  

060921 473  0.7-  1.6-    061001 118  0.1+  0.3+    061216 G96  0.8+  0.1+  

060921 473  0.5-  1.4-    061004 703  0.1-  0.9-    061216 G96  0.3+  0.3-  

060921 473  0.7-  1.4-    061004 703  1.1-  0.5-    061216 G96  0.8+  0.6-  



NAKANO

         **** Don't distribute anyone except personal use only ****

                (C) Copyright 2007 OAA/ComputingSection

write mail from CFAD0::NAKANO on 2007-02-11 07:48:38(JST).

 





    P/2006 S1 (Christensen)

Epoch 2006 Aug. 13.0 TT = JDT 2453960.5  

T 2006 Aug. 30.18024 TT                                 Nakano

q   1.3593068            (2000.0)            P               Q

n   0.15076768     Peri.  128.04646     +0.94009534     +0.32129679

a   3.4962077      Node   213.65332     -0.33965291     +0.91143586

e   0.6112054      Incl.   11.86813     +0.02926846     +0.25700789

P   6.54 (+/- 0.06 day)

From 291 observations 2006 Sept. 16-2006 Nov. 14, mean residual 0".58.

NAKANO

         **** Don't distribute anyone except personal use only ****

